Location: Bois de la Silve
(44.4667°N, 6.7833°E)
Time: 10:51:17
(UTC+00:00)

Cosmos 921 Rocket - Pass Details

Date: 14 July 2020
Orbit: 572 x 632 km, 75.8° (Epoch: 06 August)

Event Time Altitude Azimuth Distance (km) Brightness Sun altitude
Rises 02:06:43 0° 340° (NNW) 2,896 7.0 -15.8°
Reaches altitude 10° 02:09:00 10° 339° (NNW) 1,977 6.1 -15.5°
Maximum altitude 02:13:24 75° 254° (WSW) 629 2.9 -15.1°
Enters shadow 02:17:10 13° 170° (S) 1,722 5.0 -14.7°
